Location: *
(45.0500°N, 12.0500°E)
Time: 18:57:52
(UTC+00:00)

Ariane Rocket - Pass Details

Date: 09 April 2020
Orbit: 761 x 769 km, 98.7° (Epoch: 04 June)

Event Time Altitude Azimuth Distance (km) Brightness Sun altitude
Rises 18:25:17 0° 161° (SSE) 3,217 5.9 -6.8°
Reaches altitude 10° 18:27:34 10° 160° (SSE) 2,294 5.1 -7.2°
Maximum altitude 18:32:38 81° 74° (ENE) 779 3.0 -8.0°
Drops below altitude 10° 18:37:42 10° 348° (NNW) 2,306 6.0 -8.9°
Sets 18:40:01 0° 347° (NNW) 3,235 6.8 -9.2°
